Location: Shenandoah County Park
(38.9356°N, 78.4524°W)
Time: 06:02:52
(UTC-04:00)

Vanguard 1 Rocket - Pass Details

Date: 12 February 2023
Orbit: 652 x 4223 km, 34.3° (Epoch: 26 March)

Event Time Altitude Azimuth Distance (km) Brightness Sun altitude
Rises 11:28:42 0° 255° (WSW) 3,662 10.5 35.6°
Reaches altitude 10° 11:30:47 10° 252° (WSW) 2,951 10.1 35.8°
Maximum altitude 11:37:59 67° 171° (S) 1,741 10.1 36.2°
Drops below altitude 10° 11:52:22 10° 93° (E) 5,589 11.7 36.8°
Sets 11:57:59 0° 92° (E) 7,163 12.1 37.0°
